[[{"header":{"parameterUnit":"m.s-1","parameterCategory":1,"la1":30.2991,"la2":30.254,"lo1":-89.0895,"lo2":-89.0444,"dy":0.0017,"dx":0.0017,"nx":28,"ny":28,"refTime":"2024-08-01T09:00:00:Z","depth":0,"parameterNumber":2,"parameterNumberName":"U-component_of_WINDS"},"data":[0,0,0,0,0,0,0,0,0,0,0,0,0,0,0,0,0,0,0,0,0,0,0,0,0,0,0,0,0,0,0,0,0,0,0,0,0,0,0,0,0,0,0,0,0,0,0,0,0,0,0,0,0,0,0,0,0,0,4.0243,4.0244,0,4.0358,4.036,4.0361,4.0294,4.0291,4.0287,4.0284,4.0406,4.0412,4.0418,0,0,0,0,0,0,0,0,0,0,0,0,0,3.9967,3.9972,4.0243,4.0244,4.0246,4.0358,4.036,4.0361,4.0294,4.029,4.0287,4.0283,4.0404,4.0411,4.0419,0,0,0,0,0,0,0,0,0,0,0,0,0,4.0085,3.9974,4.0243,4.0226,4.0226,4.0358,4.036,4.0362,4.0295,4.029,4.0285,4.0281,4.0401,4.0411,4.042,4.0576,0,0,4.0449,4.0453,0,0,0,0,0,0,0,0,4.0078,4.0095,4.0227,4.0227,4.0227,4.0307,4.0307,4.0434,4.0297,4.0269,4.0284,4.0279,4.0377,4.0388,4.0421,4.0582,4.0587,4.045,4.0455,4.0459,4.0462,0,0,0,0,0,0,0,4.007,4.009,4.0289,4.0229,4.0229,4.0213,4.0225,4.0331,4.0349,4.0271,4.0266,4.0281,4.0376,4.0412,4.0423,4.0589,4.0449,4.0458,4.0463,4.0467,4.0881,4.0886,0,0,0,0,0,0,4.0063,4.0083,4.0285,4.0292,4.0139,4.0222,4.0235,4.0286,4.0348,4.0352,4.0285,4.0277,4.0398,4.0412,4.0427,4.0612,4.0459,4.0468,4.0473,4.0876,4.0882,4.0888,0,0,0,0,0,0,4.0057,4.0081,4.028,4.0187,4.0211,4.0232,4.029,4.0291,4.0326,4.0358,4.0362,4.0318,4.0395,4.0414,4.0539,4.0615,4.0472,4.0481,4.087,4.0878,4.0885,4.0984,0,0,0,0,0,0,4.0049,4.008,4.0139,4.0188,4.0216,4.039,4.0295,4.0297,4.0342,4.0334,4.039,4.0395,4.0392,4.0525,4.0548,4.0625,4.0488,4.0863,4.0873,4.0883,4.0974,4.0994,4.1012,0,0,0,0,0,4.004,4.0164,4.0142,4.0167,4.029,4.0394,4.041,4.0404,4.0349,4.0408,4.0429,4.0393,4.0603,4.0538,4.0564,4.0645,4.0858,4.087,4.0882,4.0965,4.099,4.1011,0,0,0,0,0,0,4.0124,4.017,4.0147,4.029,4.0339,4.0383,4.0458,4.0431,4.0497,4.0486,4.0477,4.0491,4.062,4.0646,4.0572,4.0798,4.0722,4.074,4.0777,4.0801,4.0819,4.081,4.0496,0,0,0,0,0,4.0159,4.0239,4.0275,4.0398,4.0423,4.0437,4.0482,4.0473,4.0523,4.0544,4.0573,4.0624,4.0701,4.0753,4.0826,4.0978,4.0988,4.1046,4.1065,4.108,4.1095,4.1175,4.12,4.0928,4.0928,4.0927,0,0,4.0233,4.0268,4.0319,4.0416,4.0452,4.0535,4.0454,4.0546,4.0607,4.0558,4.0676,4.07,4.0757,4.0895,4.0957,4.092,4.1173,4.1096,4.1108,4.1114,4.119,4.1215,4.1238,4.0936,4.0934,4.0933,0,0,4.0409,4.0444,4.0549,4.0587,4.0642,4.065,4.0675,4.0723,4.0736,4.0855,4.0819,4.0892,4.1027,4.1067,4.1106,4.1295,4.1264,4.132,4.1418,4.1496,4.1517,4.1536,4.1601,4.1625,4.1335,4.1335,4.1335,0,4.0494,4.0616,4.0607,4.07,4.0743,4.0701,4.0806,4.0844,4.0922,4.0952,4.0909,4.1075,4.111,4.1256,4.1302,4.1335,4.1363,4.1313,4.1515,4.1534,4.1551,4.1613,4.1638,4.1341,4.1341,4.134,4.134,0,4.0716,4.0802,4.088,4.0953,4.1006,4.1105,4.1111,4.1165,4.1151,4.1163,4.1284,4.1325,4.1404,4.1438,4.1427,4.1582,4.1557,4.1515,4.1438,4.1583,4.1641,4.1665,4.135,4.1348,4.1346,4.1345,0,0,4.0948,4.1014,4.1042,4.1074,4.1132,4.1198,4.1296,4.1372,4.1417,4.1472,4.1553,4.1666,4.1627,4.167,4.1663,4.1732,4.1876,4.1681,4.1682,4.1713,4.2047,4.2076,4.2104,4.1856,4.1861,4.1865,4.2041,0,4.1126,4.1294,4.1287,4.1444,4.1522,4.1483,4.1567,4.1612,4.1626,4.1695,4.1711,4.179,4.1733,4.1759,4.1825,4.1845,4.1943,4.1832,4.193,4.1934,4.1915,4.2135,4.2167,4.2332,4.2064,4.2068,4.2071,0,4.1355,4.1415,4.1579,4.1623,4.1656,4.1732,4.1799,4.1866,4.1916,4.1921,4.1969,4.195,4.2048,4.197,4.2104,4.2029,4.2069,4.2085,4.2091,4.2098,4.2009,4.2146,4.2384,4.2408,4.2107,4.2104,4.2102,0,4.1504,4.1627,4.174,4.1769,4.1824,4.1878,4.1903,4.1948,4.1993,4.2054,4.2083,4.2154,4.2193,4.2249,4.225,4.2193,4.2385,4.2307,4.2391,4.2391,4.2432,4.2429,4.2678,4.2462,4.2462,4.2461,4.2461,0,4.1702,4.1803,4.1807,4.1877,4.1989,4.1981,4.2093,4.2113,4.2153,4.2225,4.2197,4.2266,4.2264,4.2334,4.2336,4.2446,4.2465,4.2471,4.247,4.2472,4.2471,4.2497,4.2484,4.2468,4.2466,4.2465,4.2464,0,4.1887,4.1894,4.2014,4.2056,4.2069,4.2149,4.2185,4.2251,4.2262,4.2354,4.2375,4.2393,4.2474,4.2481,4.2576,4.2576,4.2708,4.2696,4.2691,4.2688,4.277,4.2762,4.3043,4.3078,4.2842,4.2844,4.2846,0,4.2011,4.2088,4.2137,4.2182,4.221,4.2286,4.2331,4.2326,4.2375,4.2436,4.2494,4.2572,4.2633,4.2765,4.2786,4.2858,4.2846,4.2939,4.2856,4.2855,4.2844,4.2838,4.2845,4.2955,4.2957,4.2959,4.2961,0,4.223,4.2229,4.2295,4.2363,4.2417,4.247,4.252,4.2559,4.256,4.2617,4.2698,4.2745,4.284,4.2917,4.2987,4.3014,4.2988,4.2987,4.301,4.3012,4.3004,4.3007,4.2732,4.298,4.2978,4.2977,4.2976,4.2975,4.2387,4.2452,4.2496,4.257,4.2606,4.2653,4.2716,4.2734,4.2801,4.2877,4.2871,4.296,4.3006,4.3097,4.3129,4.3199,4.3167,4.3201,4.3209,4.3217,4.3224,4.2995,4.3212,4.3211,4.3211,4.321,4.321,0,4.2602,4.2628,4.2696,4.2765,4.2823,4.2792,4.2845,4.2896,4.2974,4.3019,4.3079,4.3172,4.3246,4.3273,4.3345,4.3396,4.3385,4.3415,4.341,4.3416,4.3249,4.3221,4.3422,4.3422,4.3422,4.3422,4.3421,4.3421,4.2721,4.2828,4.2833,4.2958,4.2983,4.3069,4.3101,4.3144,4.3179,4.3283,4.3344,4.336,4.3398,4.3472,4.3538,4.3544,4.3571,4.3605,4.3606,4.3449,4.3428,4.3407,4.3381,4.3612,4.3612,4.3766,4.3768,4.3769]},{"header":{"parameterUnit":"m.s-1","parameterCategory":1,"la1":30.2991,"la2":30.254,"lo1":-89.0895,"lo2":-89.0444,"dy":0.0017,"dx":0.0017,"nx":28,"ny":28,"refTime":"2024-08-01T09:00:00:Z","depth":0,"parameterNumber":3,"parameterNumberName":"V-component_of_WINDS"},"data":[0,0,0,0,0,0,0,0,0,0,0,0,0,0,0,0,0,0,0,0,0,0,0,0,0,0,0,0,0,0,0,0,0,0,0,0,0,0,0,0,0,0,0,0,0,0,0,0,0,0,0,0,0,0,0,0,0,0,0.9572,0.9573,0,0.9711,0.9713,0.9714,0.9747,0.9746,0.9745,0.9744,0.9888,0.9893,0.9898,0,0,0,0,0,0,0,0,0,0,0,0,0,0.9335,0.9339,0.9572,0.9573,0.9575,0.9711,0.9713,0.9715,0.9747,0.9746,0.9744,0.9743,0.9887,0.9892,0.9898,0,0,0,0,0,0,0,0,0,0,0,0,0,0.9452,0.9341,0.9571,0.9608,0.9612,0.971,0.9713,0.9715,0.9747,0.9746,0.9744,0.9743,0.9885,0.9892,0.9899,0.9972,0,0,0.9921,0.9924,0,0,0,0,0,0,0,0,0.9446,0.9461,0.9601,0.9605,0.9611,0.971,0.9682,0.9801,0.9747,0.9696,0.9744,0.9742,0.983,0.9842,0.9871,0.9978,0.9985,0.9921,0.9926,0.9929,0.9931,0,0,0,0,0,0,0,0.9438,0.9455,0.9627,0.9602,0.9609,0.9617,0.9632,0.9705,0.977,0.97,0.9703,0.9719,0.9833,0.9864,0.9875,0.9987,0.9921,0.9927,0.9932,0.9935,1.0159,1.0161,0,0,0,0,0,0,0.9423,0.9448,0.9622,0.9631,0.9523,0.9623,0.9639,0.968,0.9769,0.9781,0.972,0.972,0.9853,0.9866,0.988,0.9971,0.9929,0.9935,0.9939,1.0158,1.016,1.0162,0,0,0,0,0,0,0.9418,0.9438,0.9617,0.954,0.9564,0.9628,0.9673,0.9683,0.9714,0.9784,0.9795,0.974,0.9852,0.987,0.9948,0.9976,0.9938,0.9945,1.0156,1.0158,1.0161,1.0153,0,0,0,0,0,0,0.9411,0.9436,0.9464,0.9541,0.9568,0.9683,0.9675,0.9687,0.9726,0.9728,0.9806,0.9817,0.9852,0.9937,0.9955,0.9985,0.995,1.0154,1.0157,1.016,1.0151,1.0154,1.0158,0,0,0,0,0,0.9402,0.9457,0.9465,0.9486,0.9604,0.9684,0.97,0.9738,0.9728,0.9758,0.9802,0.9815,0.997,0.9945,0.9966,0.9998,1.0152,1.0156,1.016,1.0149,1.0154,1.0158,0,0,0,0,0,0,0.9383,0.9468,0.9478,0.9559,0.9614,0.9689,0.9727,0.9742,0.9802,0.98,0.9846,0.9864,0.9939,0.9976,0.9947,1.0073,1.0061,1.0069,1.0046,1.0051,1.0054,1.0044,0.9956,0,0,0,0,0,0.9388,0.9446,0.9517,0.9581,0.9608,0.9663,0.9699,0.9724,0.9783,0.9806,0.9856,0.9914,0.9975,1.0015,1.0075,1.0156,1.0173,1.0188,1.0191,1.0194,1.0201,1.0245,1.0253,1.0174,1.0174,1.0174,0,0,0.94,0.9453,0.9487,0.9579,0.9624,0.9683,0.9682,0.9744,0.9788,0.9816,0.9893,0.9931,0.9998,1.0077,1.0115,1.0111,1.0226,1.0199,1.0201,1.0206,1.025,1.0258,1.0264,1.0177,1.0176,1.0176,0,0,0.9451,0.9497,0.9556,0.9601,0.9669,0.9704,0.9718,0.9791,0.9817,0.9895,0.9916,0.9969,1.0075,1.0121,1.0158,1.0225,1.0239,1.0243,1.0262,1.0305,1.0311,1.0317,1.0341,1.0349,1.0249,1.0249,1.0249,0,0.9457,0.9546,0.9584,0.9645,0.9685,0.9711,0.9771,0.9813,0.9898,0.9924,0.9918,1.005,1.0097,1.0187,1.0203,1.0232,1.025,1.0235,1.0307,1.0313,1.0319,1.0342,1.0351,1.0249,1.0249,1.0249,1.0249,0,0.955,0.9611,0.965,0.973,0.9774,0.9834,0.9881,0.9921,0.9942,0.9978,1.0056,1.0113,1.0185,1.0208,1.0229,1.0301,1.0296,1.0298,1.0287,1.0326,1.0349,1.0358,1.0249,1.0249,1.0249,1.0249,0,0,0.9595,0.9693,0.9707,0.9743,0.982,0.9868,0.9928,0.9998,1.0031,1.0088,1.014,1.0228,1.0229,1.0272,1.0298,1.0336,1.0384,1.0333,1.0335,1.0341,1.0466,1.0465,1.0474,1.0393,1.0395,1.0397,1.0461,0,0.9655,0.9764,0.98,0.9891,0.9947,0.9972,1.0025,1.0077,1.0112,1.0166,1.0204,1.0265,1.0263,1.0289,1.0327,1.037,1.041,1.0366,1.0443,1.0445,1.0426,1.0486,1.0485,1.0543,1.047,1.0471,1.0472,0,0.9741,0.9798,0.9894,0.9962,0.9987,1.0034,1.01,1.015,1.021,1.0233,1.0279,1.0302,1.0366,1.035,1.0439,1.0409,1.0442,1.0467,1.0471,1.048,1.0462,1.0497,1.0563,1.0571,1.0487,1.0485,1.0484,0,0.9764,0.9865,0.9935,0.9965,1.0046,1.0079,1.0114,1.0172,1.0211,1.0269,1.0294,1.0359,1.0394,1.0444,1.0483,1.0468,1.0569,1.0556,1.0589,1.0588,1.0611,1.0609,1.0682,1.0631,1.0631,1.0631,1.063,0,0.9828,0.9886,0.9946,0.999,1.0055,1.0095,1.0159,1.0195,1.0247,1.0298,1.0323,1.037,1.0419,1.0473,1.0504,1.0573,1.0589,1.0609,1.0617,1.0607,1.0605,1.0631,1.0628,1.0633,1.0632,1.0632,1.0632,0,0.9866,0.9908,0.9987,1.0056,1.0075,1.012,1.018,1.0223,1.0258,1.0322,1.0339,1.0395,1.0459,1.0503,1.0586,1.0607,1.0681,1.0688,1.0661,1.0665,1.0695,1.0692,1.0789,1.0803,1.0741,1.0742,1.0742,0,0.9905,0.9949,1.0023,1.0058,1.0094,1.0151,1.019,1.0231,1.0271,1.0341,1.0375,1.0441,1.0496,1.0598,1.0646,1.0709,1.0718,1.0747,1.0727,1.0716,1.0718,1.0715,1.072,1.075,1.0751,1.0751,1.0751,0,0.9968,0.9987,1.0042,1.0105,1.0151,1.0203,1.0254,1.0282,1.0332,1.0375,1.0441,1.0483,1.0567,1.0632,1.0699,1.0736,1.0752,1.0757,1.0768,1.0759,1.0741,1.0751,1.067,1.0755,1.0755,1.0754,1.0754,1.0754,1.0008,1.0049,1.0106,1.0167,1.021,1.0257,1.0301,1.0341,1.0396,1.0466,1.0487,1.0555,1.0613,1.0704,1.0742,1.0796,1.0793,1.0809,1.0813,1.0817,1.0817,1.0732,1.0808,1.0808,1.0808,1.0808,1.0808,0,1.0073,1.0111,1.0167,1.0237,1.0285,1.0295,1.0352,1.0391,1.0451,1.0503,1.0555,1.063,1.0693,1.0745,1.0809,1.0842,1.0851,1.0858,1.0856,1.0865,1.0815,1.0799,1.085,1.085,1.085,1.085,1.085,1.085,1.0113,1.0182,1.0207,1.0297,1.0335,1.0401,1.0433,1.0477,1.0518,1.06,1.0652,1.0685,1.0737,1.0805,1.0863,1.0876,1.0899,1.0904,1.0919,1.0873,1.0868,1.0864,1.0849,1.0909,1.0909,1.0964,1.0965,1.0965]}]]